Location: Shepherdstown, WV
(39.4326°N, 77.8042°W)
Time: 01:50:07
(UTC-04:00)

X-37B - Pass Details

Date: 30 June 2021
Orbit: 383 x 392 km, 45.0° (Epoch: 01 July)

Event Time Altitude Azimuth Distance (km) Brightness Sun altitude
Rises 23:54:31 0° 294° (WNW) 2,257 5.1 -24.7°
Reaches altitude 10° 23:56:35 10° 293° (WNW) 1,401 3.9 -24.8°
Enters shadow 23:57:28 17° 292° (WNW) 1,046 3.2 -24.9°
